Погода в Бад-Клайнкирххайме

Австрия     46°48′46″N   13°46′44″E
темп.,
°C
ветер,
м/с
пор.,
м/с
влажн.,
%
обл.,
%
осадки,
мм/ч
давл.,
гПа
погр.,
м
29 июля, чт
чт2923:00+11ссз46946 0.5 1018113
02:00+11с22900 0.5 101832
05:00+10с228812 0.0 101719
08:00+15ю00760 0.0 1017165
11:00+20ююв22585 0.0 1016946
14:00+23ююв245278 0.1 10141769
17:00+23ю134864 0.0 10131620
20:00+18юв117252 0.1 101411
30 июля, пт
пт3023:00+14ссз22830 0.0 101523
02:00+13ссз11873 0.0 101618
05:00+12с21900 0.0 101516
08:00+17зсз01712 0.0 1014203
11:00+23ю22515 0.0 10131104
14:00+24ю324960 0.1 10111809
17:00+23юв126173 2.1 1011629
20:00+17ссз1184100 3.0 101212
31 июля, сб
сб3123:00+15ссз2292100 1.4 101332
02:00+14сз2295100 2.3 101247
05:00+14ссз2395100 1.1 101169
08:00+15зсз1293100 2.4 101271
11:00+18юв1284100 2.6 1011250
14:00+18юв1287100 7.9 1011201
17:00+20ю127766 3.9 1010371
20:00+17ссз11860 5.3 101011
1 августа, вс
вс123:00+13ссв119396 0.3 101213
02:00+13юв119880 4.2 101120
05:00+13всв1298100 1.9 1010104
08:00+14вюв239997 3.1 1008215
11:00+17ююз128456 0.5 1008580
14:00+19ююз237893 2.8 1006793
17:00+18ююз238411 4.1 1006528
20:00+11ссз479440 6.5 1009210
2 августа, пн
пн223:00+9ссз359368 0.3 1012132
02:00+10ссз239185 0.4 101391
05:00+10с2290100 0.1 101352
08:00+11с1287100 0.1 101578
11:00+13св117598 0.0 1016348
14:00+17юв115485 0.0 10151322
17:00+17ююв226123 0.4 10151102
20:00+13в11804 0.5 101612